Location: Nairn
(57.5833°N, 3.8667°W)
Time: 10:41:00
(UTC+00:00)

N. Korean satellite - Pass Details

Date: 05 November 2020
Orbit: 452 x 504 km, 97.2° (Epoch: 25 November)

Event Time Altitude Azimuth Distance (km) Brightness Sun altitude
Rises 04:32:57 0° 30° (NNE) 2,482 10.7 -24.8°
Reaches altitude 10° 04:36:27 10° 69° (ENE) 1,602 10.2 -24.3°
Maximum altitude 04:37:24 11° 85° (E) 1,546 10.2 -24.2°
Drops below altitude 10° 04:38:21 10° 101° (ESE) 1,600 10.1 -24.1°
Sets 04:41:51 0° 140° (SE) 2,474 10.6 -23.6°
